{"data":{"norad_id":68301,"epoch":"2026-09-19T14:29:07.434528Z","epoch_age_seconds":129001,"freshness":"FRESH","line1":"1 68301U 26057H   26262.60355827  .00020537  00000+0  63663-3 0  9995","line2":"2 68301  97.2837  27.9768 0001467  97.4283 262.7126 15.33450405 28372","mean_motion":15.33450405,"eccentricity":0.0001467,"inclination_deg":97.2837,"raan_deg":27.9768,"arg_perigee_deg":97.4283,"mean_anomaly_deg":262.7126,"bstar":0.00063663,"rev_number":2837,"period_min":93.905873662735,"perigee_km":464.52312752566,"apogee_km":466.53105857056,"semimajor_km":6843.6640930481,"source":"CELESTRAK","updated_at":"2026-09-20T09:00:43.854910Z"}}